Voltar ao catálogo

FENGYUN 1C DEB

AtivoPO
NORAD 31241·DEBRIS·🇨🇳 China

Lançado May 10, 1999 de Taiyuan Satellite Launch Center

Loading…

Próximas Passagens (próximas 24 horas)

TLE

AtualizadoSource: Space-Track

Época: Sep 14, 2026, 10:09 UTC

1 31241U 99025BLX 26257.42341543  .00000823  00000-0  27335-3 0  9990
2 31241  99.2659  70.7931 0066714  95.6257 265.2541 14.39480687 16347

Acompanhe FENGYUN 1C DEB em tempo real com AllMySat

Download on the App Store